[[{"header":{"parameterUnit":"m.s-1","parameterCategory":1,"la1":30.2991,"la2":30.254,"lo1":-89.0895,"lo2":-89.0444,"dy":0.0017,"dx":0.0017,"nx":28,"ny":28,"refTime":"2025-05-18T21:00:00:Z","depth":0,"parameterNumber":2,"parameterNumberName":"U-component_of_WINDS"},"data":[0,0,0,0,0,0,0,0,0,0,0,0,0,0,0,0,0,0,0,0,0,0,0,0,0,0,0,0,0,0,0,0,0,0,0,0,0,0,0,0,0,0,0,0,0,0,0,0,0,0,0,0,0,0,0,0,0,0,0.4749,0.4749,0,0.4767,0.4767,0.4767,0.4756,0.4755,0.4755,0.4754,0.4773,0.4774,0.4775,0,0,0,0,0,0,0,0,0,0,0,0,0,0.4704,0.4705,0.4749,0.4749,0.475,0.4767,0.4767,0.4767,0.4756,0.4755,0.4755,0.4754,0.4773,0.4774,0.4775,0,0,0,0,0,0,0,0,0,0,0,0,0,0.4723,0.4705,0.4749,0.4746,0.4746,0.4767,0.4767,0.4768,0.4756,0.4755,0.4755,0.4754,0.4772,0.4774,0.4775,0.48,0,0,0.478,0.478,0,0,0,0,0,0,0,0,0.4722,0.4725,0.4746,0.4746,0.4746,0.4758,0.4758,0.4779,0.4756,0.4752,0.4754,0.4753,0.4769,0.4771,0.4776,0.4801,0.4802,0.478,0.4781,0.4781,0.4782,0,0,0,0,0,0,0,0.4721,0.4724,0.4756,0.4747,0.4746,0.4743,0.4745,0.4762,0.4765,0.4753,0.4752,0.4754,0.4769,0.4774,0.4776,0.4802,0.478,0.4781,0.4782,0.4783,0.4848,0.4848,0,0,0,0,0,0,0.472,0.4723,0.4756,0.4757,0.4732,0.4745,0.4747,0.4755,0.4765,0.4765,0.4755,0.4753,0.4772,0.4774,0.4777,0.4805,0.4781,0.4783,0.4784,0.4847,0.4848,0.4849,0,0,0,0,0,0,0.4719,0.4723,0.4755,0.474,0.4743,0.4746,0.4756,0.4756,0.4762,0.4766,0.4767,0.476,0.4772,0.4775,0.4794,0.4806,0.4783,0.4785,0.4846,0.4847,0.4848,0.4864,0,0,0,0,0,0,0.4717,0.4722,0.4732,0.474,0.4744,0.4772,0.4757,0.4757,0.4764,0.4763,0.4771,0.4772,0.4771,0.4792,0.4796,0.4808,0.4786,0.4845,0.4846,0.4848,0.4863,0.4866,0.4869,0,0,0,0,0,0.4716,0.4737,0.4733,0.4737,0.4757,0.4773,0.4776,0.4774,0.4765,0.4775,0.4778,0.4772,0.4804,0.4794,0.4798,0.4811,0.4844,0.4846,0.4848,0.4861,0.4865,0.4868,0,0,0,0,0,0,0.4731,0.4738,0.4734,0.4758,0.4765,0.4771,0.4784,0.4779,0.4789,0.4787,0.4785,0.4787,0.4807,0.4811,0.48,0.4835,0.4823,0.4825,0.4831,0.4835,0.4838,0.4837,0.4787,0,0,0,0,0,0.4737,0.475,0.4755,0.4776,0.4779,0.4781,0.4788,0.4786,0.4794,0.4797,0.4801,0.4808,0.482,0.4828,0.4839,0.4863,0.4864,0.4874,0.4877,0.4879,0.4881,0.4893,0.4897,0.4855,0.4855,0.4855,0,0,0.475,0.4755,0.4764,0.4779,0.4784,0.4797,0.4784,0.4798,0.4808,0.4799,0.4817,0.4821,0.4829,0.485,0.486,0.4854,0.4893,0.4881,0.4883,0.4884,0.4895,0.4899,0.4902,0.4856,0.4856,0.4856,0,0,0.478,0.4786,0.4803,0.4808,0.4816,0.4816,0.482,0.4827,0.4829,0.4847,0.484,0.4851,0.4872,0.4878,0.4883,0.4913,0.4907,0.4917,0.4932,0.4943,0.4947,0.4949,0.4959,0.4963,0.4919,0.4919,0.4919,0,0.4795,0.4814,0.4812,0.4826,0.4833,0.4825,0.4841,0.4847,0.4858,0.4862,0.4856,0.488,0.4885,0.4907,0.4914,0.4919,0.4923,0.4916,0.4946,0.4949,0.4952,0.4961,0.4965,0.492,0.492,0.492,0.492,0,0.4832,0.4845,0.4857,0.4868,0.4875,0.4891,0.489,0.4899,0.4896,0.4897,0.4914,0.492,0.4931,0.4936,0.4934,0.4958,0.4953,0.4947,0.4934,0.4957,0.4965,0.4969,0.4921,0.4921,0.4921,0.4921,0,0,0.4872,0.488,0.4885,0.4888,0.4896,0.4906,0.4921,0.4931,0.4937,0.4945,0.4957,0.4974,0.4967,0.4973,0.4971,0.4981,0.5002,0.4972,0.4973,0.4977,0.5027,0.5032,0.5036,0.4999,0.4999,0.5,0.5026,0,0.4902,0.4927,0.4924,0.4948,0.496,0.4952,0.4964,0.497,0.4971,0.498,0.4981,0.4993,0.4983,0.4987,0.4996,0.4998,0.5012,0.4996,0.5009,0.5009,0.5007,0.504,0.5046,0.507,0.5029,0.503,0.503,0,0.494,0.4948,0.4972,0.4976,0.4981,0.4992,0.5001,0.5011,0.5016,0.5016,0.5022,0.5018,0.5032,0.5019,0.5038,0.5027,0.5032,0.5033,0.5034,0.5035,0.5021,0.5041,0.5078,0.5081,0.5036,0.5035,0.5035,0,0.4965,0.4983,0.4999,0.5003,0.5008,0.5016,0.5019,0.5024,0.503,0.5037,0.5041,0.505,0.5055,0.5062,0.506,0.5051,0.5079,0.5066,0.5078,0.5078,0.5084,0.5084,0.5121,0.5089,0.5089,0.5089,0.5089,0,0.4998,0.5013,0.501,0.5021,0.5037,0.5033,0.505,0.5051,0.5055,0.5065,0.5059,0.5068,0.5066,0.5075,0.5074,0.5088,0.5091,0.5091,0.509,0.5091,0.5091,0.5094,0.5092,0.509,0.5089,0.5089,0.5089,0,0.503,0.5029,0.5046,0.5049,0.505,0.5062,0.5064,0.5074,0.5074,0.5086,0.5089,0.5089,0.5099,0.5098,0.5109,0.5108,0.5126,0.5124,0.5124,0.5124,0.5135,0.5134,0.5176,0.518,0.5145,0.5146,0.5146,0,0.505,0.5061,0.5065,0.5071,0.5074,0.5084,0.509,0.5086,0.5092,0.5099,0.5107,0.5116,0.5124,0.514,0.5141,0.515,0.5147,0.5161,0.5148,0.5148,0.5146,0.5145,0.5146,0.5164,0.5164,0.5164,0.5165,0,0.5086,0.5085,0.5093,0.5101,0.5107,0.5113,0.5119,0.5124,0.5121,0.5128,0.5138,0.5144,0.5155,0.5164,0.5172,0.5174,0.5169,0.5168,0.5171,0.5172,0.5171,0.5171,0.513,0.5167,0.5167,0.5167,0.5167,0.5167,0.5112,0.5121,0.5125,0.5134,0.5137,0.5142,0.515,0.5151,0.5159,0.5167,0.5165,0.5176,0.518,0.519,0.5193,0.5201,0.5196,0.5201,0.5202,0.5203,0.5203,0.517,0.5203,0.5202,0.5202,0.5202,0.5202,0,0.5147,0.5149,0.5157,0.5164,0.5171,0.5165,0.517,0.5176,0.5185,0.519,0.5196,0.5207,0.5216,0.5217,0.5225,0.5231,0.5228,0.5233,0.5232,0.5232,0.5208,0.5204,0.5235,0.5235,0.5235,0.5235,0.5235,0.5235,0.5166,0.518,0.5179,0.5195,0.5196,0.5206,0.521,0.5214,0.5217,0.5229,0.5235,0.5236,0.5238,0.5246,0.5253,0.5253,0.5256,0.5261,0.526,0.5238,0.5234,0.5231,0.5227,0.5262,0.5262,0.5284,0.5284,0.5284]},{"header":{"parameterUnit":"m.s-1","parameterCategory":1,"la1":30.2991,"la2":30.254,"lo1":-89.0895,"lo2":-89.0444,"dy":0.0017,"dx":0.0017,"nx":28,"ny":28,"refTime":"2025-05-18T21:00:00:Z","depth":0,"parameterNumber":3,"parameterNumberName":"V-component_of_WINDS"},"data":[0,0,0,0,0,0,0,0,0,0,0,0,0,0,0,0,0,0,0,0,0,0,0,0,0,0,0,0,0,0,0,0,0,0,0,0,0,0,0,0,0,0,0,0,0,0,0,0,0,0,0,0,0,0,0,0,0,0,6.3633,6.3633,0,6.3628,6.3628,6.3628,6.3568,6.3566,6.3565,6.3563,6.3558,6.3559,6.3561,0,0,0,0,0,0,0,0,0,0,0,0,0,6.3592,6.3594,6.3633,6.3633,6.3633,6.3628,6.3628,6.3628,6.3568,6.3566,6.3564,6.3563,6.3558,6.3559,6.3561,0,0,0,0,0,0,0,0,0,0,0,0,0,6.3601,6.3594,6.3633,6.3603,6.36,6.3628,6.3628,6.3628,6.3569,6.3566,6.3564,6.3562,6.3557,6.3559,6.3561,6.3617,0,0,6.3567,6.3567,0,0,0,0,0,0,0,0,6.3601,6.3603,6.3607,6.3605,6.3602,6.3596,6.3611,6.3624,6.3569,6.358,6.3563,6.3561,6.3573,6.3573,6.3577,6.3617,6.3617,6.3567,6.3568,6.3569,6.3569,0,0,0,0,0,0,0,6.36,6.3602,6.3631,6.3607,6.3604,6.3589,6.3588,6.3613,6.3589,6.3579,6.3575,6.3575,6.3571,6.3575,6.3576,6.3617,6.3567,6.3568,6.357,6.357,6.3704,6.3706,0,0,0,0,0,0,6.3604,6.3602,6.3631,6.3631,6.3596,6.3592,6.3591,6.36,6.3589,6.3585,6.3577,6.3572,6.3573,6.3574,6.3576,6.3642,6.3569,6.357,6.3572,6.3701,6.3704,6.3707,0,0,0,0,0,0,6.3603,6.3607,6.3631,6.3615,6.3617,6.3595,6.3607,6.3601,6.3606,6.3587,6.3582,6.3586,6.3571,6.3573,6.3608,6.3641,6.3571,6.3573,6.3699,6.3702,6.3706,6.3774,0,0,0,0,0,0,6.3602,6.3607,6.3628,6.3616,6.3619,6.3663,6.3609,6.3603,6.3609,6.3603,6.3594,6.3591,6.357,6.3605,6.361,6.3642,6.3574,6.3696,6.37,6.3705,6.3768,6.3779,6.3789,0,0,0,0,0,6.3601,6.3647,6.3629,6.3633,6.3645,6.3665,6.3667,6.3641,6.3612,6.3633,6.3621,6.3591,6.3637,6.3609,6.3614,6.3647,6.3693,6.3699,6.3704,6.3764,6.3777,6.3788,0,0,0,0,0,0,6.3663,6.3645,6.3625,6.3669,6.3669,6.3655,6.3681,6.3656,6.3664,6.3658,6.3627,6.3625,6.3665,6.3659,6.3629,6.3702,6.366,6.3666,6.3704,6.3716,6.3726,6.3726,6.3576,0,0,0,0,0,6.3682,6.3701,6.3684,6.3725,6.3726,6.3704,6.3712,6.3692,6.3691,6.3691,6.3681,6.3681,6.3695,6.3705,6.3717,6.3768,6.3765,6.3793,6.3803,6.3811,6.3817,6.3844,6.3856,6.3725,6.3725,6.3725,0,0,6.3722,6.3714,6.3728,6.3737,6.3735,6.3755,6.3704,6.3727,6.3741,6.3694,6.3726,6.3719,6.3717,6.376,6.3778,6.3757,6.3853,6.3818,6.3825,6.3826,6.3851,6.3863,6.3874,6.3729,6.3728,6.3727,0,0,6.3804,6.38,6.3833,6.3832,6.3829,6.3814,6.3823,6.3812,6.3806,6.3838,6.3803,6.382,6.3845,6.3845,6.3848,6.3931,6.3903,6.3936,6.3988,6.4014,6.4025,6.4034,6.4063,6.4074,6.3942,6.3942,6.3942,0,6.3853,6.3881,6.3853,6.3879,6.3884,6.3843,6.3877,6.3877,6.3878,6.3883,6.3859,6.389,6.3886,6.3928,6.3948,6.3952,6.3961,6.3936,6.4025,6.4034,6.4042,6.407,6.4081,6.3946,6.3945,6.3945,6.3945,0,6.3942,6.3962,6.399,6.3992,6.4001,6.403,6.4007,6.4019,6.3999,6.3987,6.402,6.4014,6.4024,6.4032,6.4013,6.4072,6.4059,6.4031,6.3988,6.4059,6.4085,6.4095,6.3952,6.395,6.3949,6.3948,0,0,6.4063,6.405,6.406,6.4061,6.4056,6.4071,6.4099,6.4109,6.412,6.4122,6.4145,6.4168,6.4141,6.4145,6.4126,6.4149,6.4215,6.4118,6.4117,6.4136,6.428,6.4301,6.4314,6.4197,6.4199,6.4201,6.428,0,6.4141,6.4188,6.4164,6.4214,6.4233,6.4194,6.4218,6.4218,6.4207,6.4222,6.421,6.4227,6.4191,6.4193,6.4214,6.4203,6.4244,6.4197,6.4218,6.4219,6.422,6.4328,6.435,6.4425,6.429,6.4292,6.4293,0,6.424,6.4247,6.4299,6.429,6.4297,6.4319,6.4326,6.4341,6.4339,6.433,6.4335,6.431,6.4337,6.4295,6.4332,6.43,6.4308,6.4304,6.4306,6.4307,6.426,6.4331,6.4449,6.446,6.4309,6.4307,6.4306,0,6.4323,6.4345,6.4379,6.4381,6.4371,6.4388,6.4385,6.4381,6.4389,6.4396,6.44,6.441,6.4416,6.4424,6.4403,6.4374,6.4443,6.4399,6.4436,6.4436,6.4452,6.4451,6.4572,6.4457,6.4457,6.4457,6.4456,0,6.4413,6.4447,6.4416,6.4437,6.4473,6.4446,6.4483,6.4475,6.4473,6.4491,6.4458,6.4477,6.4448,6.4463,6.4447,6.448,6.4483,6.4476,6.4472,6.4479,6.448,6.4484,6.4478,6.446,6.4459,6.4458,6.4458,0,6.4512,6.4493,6.4527,6.4516,6.4514,6.4541,6.4531,6.455,6.4538,6.4562,6.4566,6.4547,6.4563,6.4543,6.4558,6.4547,6.4592,6.458,6.4593,6.4589,6.4628,6.4624,6.4755,6.4771,6.4646,6.4647,6.4648,0,6.4571,6.4596,6.4587,6.4597,6.4596,6.4613,6.4621,6.4595,6.4604,6.4605,6.4624,6.4638,6.4648,6.4677,6.4664,6.4676,6.4663,6.4708,6.4664,6.4672,6.4664,6.4662,6.4665,6.4717,6.4718,6.472,6.4721,0,6.4678,6.4667,6.468,6.4689,6.4699,6.4706,6.4709,6.472,6.4693,6.4705,6.4722,6.473,6.4745,6.476,6.4768,6.4764,6.4738,6.4735,6.4744,6.4752,6.4758,6.4755,6.4617,6.4732,6.473,6.473,6.4729,6.4729,6.4758,6.4779,6.4776,6.4791,6.4791,6.4795,6.4813,6.4802,6.4816,6.4827,6.481,6.4832,6.483,6.4838,6.4838,6.4854,6.4835,6.4848,6.4852,6.4855,6.4861,6.4756,6.4856,6.4855,6.4855,6.4855,6.4854,0,6.4864,6.486,6.4874,6.488,6.4892,6.4867,6.487,6.4881,6.49,6.4901,6.4912,6.4931,6.4945,6.4934,6.4945,6.4961,6.4949,6.4965,6.4963,6.4963,6.4878,6.4869,6.4974,6.4974,6.4974,6.4974,6.4974,6.4974,6.492,6.4953,6.4942,6.4975,6.4971,6.4992,6.4995,6.4999,6.5,6.5023,6.5034,6.5027,6.5023,6.5034,6.5046,6.5042,6.5048,6.5068,6.506,6.4981,6.4969,6.4958,6.4949,6.5069,6.507,6.5144,6.5144,6.5145]}]]